[[{"header":{"parameterUnit":"m.s-1","parameterCategory":1,"la1":30.2991,"la2":30.254,"lo1":-89.0895,"lo2":-89.0444,"dy":0.0017,"dx":0.0017,"nx":28,"ny":28,"refTime":"2024-07-19T03:00:00:Z","depth":0,"parameterNumber":2,"parameterNumberName":"U-component_of_WINDS"},"data":[0,0,0,0,0,0,0,0,0,0,0,0,0,0,0,0,0,0,0,0,0,0,0,0,0,0,0,0,0,0,0,0,0,0,0,0,0,0,0,0,0,0,0,0,0,0,0,0,0,0,0,0,0,0,0,0,0,0,1.9816,1.9817,0,1.9832,1.9833,1.9833,1.9797,1.9796,1.9795,1.9793,1.9808,1.9809,1.981,0,0,0,0,0,0,0,0,0,0,0,0,0,1.9753,1.9754,1.9816,1.9817,1.9817,1.9832,1.9833,1.9833,1.9797,1.9796,1.9794,1.9793,1.9807,1.9809,1.9811,0,0,0,0,0,0,0,0,0,0,0,0,0,1.9776,1.9754,1.9816,1.9801,1.98,1.9832,1.9833,1.9833,1.9797,1.9796,1.9794,1.9792,1.9807,1.9809,1.9811,1.9858,0,0,1.9817,1.9818,0,0,0,0,0,0,0,0,1.9774,1.9778,1.9803,1.9802,1.9801,1.9811,1.9815,1.9841,1.9798,1.9798,1.9793,1.9791,1.981,1.9812,1.9818,1.9859,1.986,1.9818,1.9819,1.982,1.982,0,0,0,0,0,0,0,1.9773,1.9777,1.9823,1.9803,1.9802,1.9792,1.9794,1.982,1.9813,1.9798,1.9795,1.9798,1.9809,1.9816,1.9818,1.986,1.9818,1.9819,1.9821,1.9822,1.994,1.9941,0,0,0,0,0,0,1.9773,1.9776,1.9822,1.9823,1.9783,1.9795,1.9796,1.9809,1.9813,1.9812,1.9799,1.9796,1.9814,1.9816,1.9819,1.9874,1.982,1.9822,1.9823,1.9938,1.994,1.9942,0,0,0,0,0,0,1.9772,1.9778,1.9821,1.9799,1.9804,1.9798,1.9813,1.9811,1.9818,1.9814,1.9812,1.9808,1.9812,1.9816,1.9849,1.9874,1.9823,1.9825,1.9936,1.9938,1.9941,1.9985,0,0,0,0,0,0,1.9771,1.9778,1.9796,1.98,1.9805,1.9852,1.9814,1.9812,1.9822,1.9818,1.9822,1.9821,1.9811,1.9846,1.9851,1.9876,1.9826,1.9933,1.9937,1.994,1.9982,1.9989,1.9996,0,0,0,0,0,1.9768,1.9808,1.9797,1.9803,1.9828,1.9854,1.9857,1.9845,1.9824,1.9842,1.984,1.9821,1.9871,1.9849,1.9855,1.9881,1.9932,1.9936,1.994,1.9978,1.9988,1.9996,0,0,0,0,0,0,1.9807,1.9808,1.9796,1.9838,1.9846,1.9847,1.987,1.9856,1.9869,1.9864,1.9849,1.985,1.9886,1.9887,1.9863,1.9927,1.9897,1.9903,1.9925,1.9934,1.9941,1.9939,1.9828,0,0,0,0,0,1.9821,1.9842,1.9841,1.9878,1.9883,1.9876,1.9887,1.9877,1.9884,1.9887,1.9887,1.9894,1.9911,1.9923,1.9938,1.9982,1.9982,2.0003,2.001,2.0016,2.002,2.0043,2.0052,1.9955,1.9955,1.9955,0,0,1.9848,1.9852,1.9866,1.9886,1.9891,1.9912,1.9879,1.9903,1.9918,1.989,1.9922,1.9922,1.9929,1.9967,1.9984,1.9969,2.0047,2.0021,2.0026,2.0027,2.0048,2.0057,2.0065,1.9958,1.9958,1.9957,0,0,1.991,1.9915,1.9946,1.9952,1.996,1.9955,1.9963,1.9966,1.9965,1.9997,1.9976,1.9994,2.0024,2.0029,2.0036,2.01,2.0083,2.0105,2.0142,2.0164,2.0172,2.0178,2.02,2.0208,2.011,2.011,2.011,0,1.9943,1.9975,1.9964,1.9989,1.9998,1.9975,2.0005,2.0011,2.0024,2.003,2.0014,2.0051,2.0054,2.0093,2.0108,2.0115,2.0122,2.0104,2.0172,2.0178,2.0184,2.0205,2.0213,2.0113,2.0113,2.0112,2.0112,0,2.0015,2.0038,2.0062,2.0075,2.0087,2.0115,2.0107,2.012,2.011,2.0107,2.0138,2.0141,2.0157,2.0165,2.0155,2.0203,2.0193,2.0175,2.0144,2.0196,2.0215,2.0223,2.0117,2.0116,2.0115,2.0114,0,0,2.0101,2.0108,2.0117,2.0122,2.013,2.0146,2.0173,2.0189,2.02,2.021,2.0231,2.0257,2.024,2.0248,2.0238,2.0257,2.0307,2.0236,2.0236,2.0248,2.0358,2.0371,2.0381,2.0296,2.0297,2.0298,2.0357,0,2.0161,2.0208,2.0198,2.0243,2.0263,2.0241,2.0264,2.0271,2.0269,2.0285,2.0282,2.03,2.0277,2.0281,2.03,2.0297,2.0328,2.0293,2.0314,2.0315,2.0312,2.0391,2.0405,2.046,2.0365,2.0366,2.0367,0,2.0237,2.025,2.0298,2.0302,2.031,2.0331,2.0344,2.036,2.0367,2.0364,2.0373,2.0359,2.0385,2.0355,2.039,2.0366,2.0374,2.0374,2.0376,2.0376,2.0343,2.0393,2.0478,2.0486,2.0379,2.0378,2.0377,0,2.0294,2.0323,2.0355,2.0361,2.0366,2.0381,2.0384,2.0389,2.0399,2.0411,2.0417,2.0431,2.0439,2.045,2.044,2.042,2.0476,2.0446,2.0473,2.0474,2.0485,2.0484,2.0572,2.0493,2.0492,2.0492,2.0492,0,2.0361,2.0391,2.0381,2.04,2.0433,2.0421,2.0453,2.0453,2.0458,2.0476,2.0458,2.0476,2.0463,2.0479,2.0472,2.0501,2.0505,2.0502,2.05,2.0503,2.0503,2.0508,2.0503,2.0494,2.0494,2.0494,2.0493,0,2.0429,2.0424,2.0457,2.046,2.0461,2.0485,2.0486,2.0504,2.0501,2.0524,2.0529,2.0524,2.0542,2.0534,2.0553,2.0548,2.0585,2.0578,2.0583,2.0581,2.0608,2.0605,2.0701,2.0712,2.0626,2.0627,2.0628,0,2.0472,2.0495,2.05,2.0511,2.0516,2.0535,2.0545,2.0534,2.0545,2.0554,2.0571,2.0588,2.06,2.0631,2.0628,2.0642,2.0635,2.0667,2.0637,2.0639,2.0634,2.0632,2.0634,2.0673,2.0674,2.0675,2.0675,0,2.0549,2.0545,2.0561,2.0576,2.0589,2.06,2.0609,2.0619,2.0609,2.0622,2.0641,2.0651,2.0671,2.0687,2.07,2.0702,2.0687,2.0685,2.0692,2.0695,2.0697,2.0695,2.0599,2.0683,2.0682,2.0681,2.0681,2.0681,2.0605,2.0624,2.063,2.0648,2.0654,2.0663,2.068,2.0679,2.0695,2.071,2.0703,2.0724,2.073,2.0745,2.075,2.0766,2.0753,2.0763,2.0766,2.0768,2.0771,2.0695,2.0768,2.0768,2.0768,2.0768,2.0767,0,2.068,2.0683,2.07,2.0714,2.0728,2.0713,2.0722,2.0735,2.0754,2.0761,2.0774,2.0796,2.0812,2.081,2.0825,2.0838,2.0832,2.0842,2.0841,2.0841,2.0782,2.0774,2.0847,2.0847,2.0847,2.0847,2.0847,2.0847,2.072,2.0751,2.0747,2.078,2.0783,2.0805,2.0811,2.0819,2.0825,2.0849,2.0863,2.0862,2.0866,2.088,2.0894,2.0893,2.0899,2.0912,2.0909,2.0853,2.0845,2.0838,2.083,2.0914,2.0914,2.0966,2.0966,2.0967]},{"header":{"parameterUnit":"m.s-1","parameterCategory":1,"la1":30.2991,"la2":30.254,"lo1":-89.0895,"lo2":-89.0444,"dy":0.0017,"dx":0.0017,"nx":28,"ny":28,"refTime":"2024-07-19T03:00:00:Z","depth":0,"parameterNumber":3,"parameterNumberName":"V-component_of_WINDS"},"data":[0,0,0,0,0,0,0,0,0,0,0,0,0,0,0,0,0,0,0,0,0,0,0,0,0,0,0,0,0,0,0,0,0,0,0,0,0,0,0,0,0,0,0,0,0,0,0,0,0,0,0,0,0,0,0,0,0,0,0.8019,0.8019,0,0.8027,0.8027,0.8028,0.8079,0.808,0.8081,0.8083,0.809,0.8089,0.8088,0,0,0,0,0,0,0,0,0,0,0,0,0,0.8046,0.8045,0.8019,0.8019,0.8019,0.8027,0.8027,0.8028,0.8079,0.808,0.8082,0.8083,0.8091,0.8089,0.8088,0,0,0,0,0,0,0,0,0,0,0,0,0,0.8042,0.8045,0.8019,0.8046,0.8048,0.8027,0.8027,0.8028,0.8078,0.808,0.8082,0.8084,0.8091,0.809,0.8088,0.8042,0,0,0.8084,0.8083,0,0,0,0,0,0,0,0,0.8042,0.8041,0.8042,0.8044,0.8047,0.8054,0.804,0.8032,0.8078,0.8067,0.8083,0.8085,0.8077,0.8077,0.8074,0.8042,0.8043,0.8084,0.8083,0.8082,0.8082,0,0,0,0,0,0,0,0.8043,0.8041,0.8022,0.8042,0.8045,0.8057,0.8058,0.8039,0.8061,0.8068,0.8072,0.8072,0.8078,0.8075,0.8075,0.8043,0.8084,0.8082,0.8082,0.8081,0.7973,0.7971,0,0,0,0,0,0,0.8039,0.8041,0.8022,0.8023,0.8049,0.8055,0.8057,0.805,0.8062,0.8065,0.807,0.8074,0.8077,0.8076,0.8075,0.8021,0.8082,0.8081,0.808,0.7975,0.7972,0.797,0,0,0,0,0,0,0.804,0.8037,0.8022,0.8033,0.8032,0.8052,0.8044,0.8049,0.8046,0.8063,0.8068,0.8063,0.8078,0.8077,0.805,0.8022,0.808,0.8079,0.7977,0.7974,0.7971,0.7913,0,0,0,0,0,0,0.804,0.8037,0.802,0.8032,0.8031,0.7997,0.8043,0.8048,0.8043,0.8049,0.8058,0.8061,0.808,0.8051,0.8048,0.8021,0.8078,0.798,0.7976,0.7972,0.7918,0.7909,0.7901,0,0,0,0,0,0.8041,0.8004,0.8019,0.8016,0.801,0.7995,0.7994,0.8017,0.8041,0.8024,0.8035,0.8061,0.8026,0.8048,0.8045,0.8017,0.7981,0.7977,0.7972,0.7922,0.7911,0.7901,0,0,0,0,0,0,0.7988,0.8006,0.8023,0.7989,0.799,0.8004,0.7983,0.8004,0.7999,0.8004,0.8031,0.8033,0.8001,0.8007,0.8032,0.7973,0.8008,0.8002,0.797,0.796,0.7952,0.7951,0.8077,0,0,0,0,0,0.7973,0.7959,0.7975,0.7943,0.7943,0.7962,0.7957,0.7973,0.7976,0.7977,0.7986,0.7987,0.7976,0.7968,0.7959,0.7919,0.7921,0.7898,0.7889,0.7882,0.7877,0.7855,0.7845,0.7955,0.7955,0.7955,0,0,0.794,0.7948,0.7938,0.7932,0.7935,0.792,0.7963,0.7945,0.7934,0.7974,0.7949,0.7955,0.7958,0.7923,0.7909,0.7927,0.7847,0.7877,0.7871,0.787,0.785,0.7839,0.783,0.7952,0.7953,0.7953,0,0,0.7873,0.7878,0.7852,0.7853,0.7857,0.787,0.7864,0.7874,0.788,0.7855,0.7884,0.7871,0.7852,0.7853,0.785,0.7781,0.7805,0.7778,0.7734,0.7712,0.7703,0.7696,0.7671,0.7661,0.7773,0.7773,0.7772,0,0.7833,0.7811,0.7835,0.7815,0.7811,0.7847,0.7819,0.782,0.7821,0.7817,0.7837,0.7813,0.7818,0.7783,0.7766,0.7764,0.7756,0.7777,0.7703,0.7695,0.7689,0.7665,0.7655,0.7769,0.777,0.777,0.777,0,0.776,0.7745,0.7723,0.7722,0.7716,0.7692,0.7712,0.7703,0.7719,0.773,0.7703,0.771,0.7702,0.7695,0.7712,0.7663,0.7674,0.7698,0.7734,0.7674,0.7653,0.7644,0.7764,0.7766,0.7767,0.7767,0,0,0.7662,0.7673,0.7665,0.7665,0.767,0.7659,0.7636,0.7629,0.762,0.7618,0.76,0.7582,0.7604,0.7601,0.7618,0.7599,0.7543,0.7625,0.7625,0.7609,0.7488,0.747,0.7459,0.7558,0.7556,0.7555,0.7488,0,0.7597,0.756,0.758,0.7539,0.7525,0.7557,0.7537,0.7538,0.7547,0.7536,0.7546,0.7533,0.7563,0.7561,0.7543,0.7553,0.7519,0.7558,0.754,0.754,0.7539,0.7448,0.7429,0.7365,0.748,0.7478,0.7477,0,0.7518,0.7512,0.747,0.7477,0.7472,0.7454,0.7448,0.7437,0.7438,0.7446,0.7442,0.7463,0.744,0.7476,0.7445,0.7471,0.7465,0.7468,0.7466,0.7466,0.7505,0.7444,0.7346,0.7336,0.7464,0.7465,0.7466,0,0.7449,0.7431,0.7404,0.7402,0.741,0.7397,0.7399,0.7403,0.7396,0.7391,0.7387,0.7379,0.7375,0.7368,0.7385,0.741,0.7352,0.7389,0.7357,0.7357,0.7344,0.7344,0.7242,0.734,0.734,0.734,0.734,0,0.7375,0.7348,0.7373,0.7356,0.7326,0.7349,0.7318,0.7325,0.7327,0.7311,0.7339,0.7323,0.7348,0.7334,0.7348,0.732,0.7318,0.7323,0.7327,0.732,0.732,0.7317,0.7322,0.7337,0.7338,0.7339,0.7339,0,0.7294,0.731,0.7281,0.7291,0.7293,0.727,0.7278,0.7262,0.7273,0.7252,0.7249,0.7265,0.725,0.7267,0.7255,0.7264,0.7225,0.7236,0.7225,0.7228,0.7195,0.7198,0.7087,0.7074,0.718,0.7179,0.7178,0,0.7246,0.7225,0.7232,0.7224,0.7224,0.721,0.7204,0.7225,0.7217,0.7216,0.72,0.7188,0.7179,0.7155,0.7165,0.7155,0.7165,0.7127,0.7164,0.7158,0.7164,0.7165,0.7163,0.712,0.7119,0.7118,0.7117,0,0.7158,0.7166,0.7156,0.7148,0.7139,0.7133,0.713,0.7121,0.7143,0.7133,0.7118,0.7111,0.7098,0.7085,0.7078,0.708,0.7102,0.7105,0.7097,0.709,0.7084,0.7087,0.7204,0.7108,0.7109,0.7109,0.711,0.711,0.7092,0.7075,0.7077,0.7064,0.7063,0.7059,0.7044,0.7052,0.704,0.7031,0.7044,0.7025,0.7026,0.7018,0.7018,0.7004,0.702,0.7009,0.7006,0.7003,0.6997,0.7087,0.7003,0.7003,0.7003,0.7003,0.7004,0,0.7005,0.7008,0.6995,0.6989,0.6979,0.6999,0.6996,0.6986,0.6969,0.6968,0.6959,0.6941,0.6929,0.6938,0.6927,0.6914,0.6923,0.691,0.6911,0.6911,0.6984,0.6991,0.6902,0.6902,0.6902,0.6902,0.6902,0.6903,0.6959,0.6931,0.6939,0.691,0.6913,0.6895,0.6891,0.6887,0.6886,0.6866,0.6855,0.6861,0.6863,0.6853,0.6842,0.6845,0.6839,0.6822,0.6829,0.6896,0.6906,0.6916,0.6923,0.6821,0.6821,0.6757,0.6757,0.6756]}]]